Location: Freiburg+im+Breisgau
(48.0359°N, 7.8195°E)
Time: 11:56:38
(UTC+02:00)

ISS - Visible Passes

Search period start: 13 May 2021 00:00
Search period end: 23 May 2021 00:00
Orbit: 417 x 422 km, 51.6° (Epoch: 13 May)

Date Brightness Start Highest point End Pass type
(mag) Time Alt. Az. Time Alt. Az. Time Alt. Az.
13 May -2.7 02:05:02 42° NNW 02:05:24 44° N 02:08:40 10° ENE visible
13 May -3.1 03:39:13 10° WNW 03:42:33 57° NNE 03:45:54 10° E visible
13 May -3.2 05:16:07 10° WNW 05:19:19 39° SSW 05:22:29 10° SE visible
14 May -2.5 01:18:39 40° NNE 01:18:39 40° NNE 01:21:11 10° ENE visible
14 May -2.8 02:51:45 10° WNW 02:55:03 48° N 02:58:21 10° E visible
14 May -3.7 04:28:37 10° WNW 04:31:57 59° SSW 04:35:17 10° SE visible
14 May -3.3 22:50:31 10° SW 22:53:38 37° SE 22:55:36 19° E visible
15 May -3.2 00:27:02 10° W 00:30:22 59° NNW 00:33:43 10° ENE visible
15 May -2.6 02:04:16 10° WNW 02:07:31 44° N 02:10:47 10° E visible
15 May -3.9 03:41:09 10° WNW 03:44:32 84° SSW 03:47:55 10° ESE visible
15 May -2.7 22:03:31 10° SSW 22:06:19 25° SE 22:09:09 10° E visible
15 May -3.6 23:39:32 10° WSW 23:42:53 75° NNW 23:46:16 10° ENE visible
16 May -2.5 01:16:45 10° WNW 01:19:59 43° N 01:23:14 10° ENE visible
16 May -3.6 02:53:42 10° WNW 02:57:05 73° NNE 03:00:28 10° ESE visible
16 May -2.8 04:30:48 10° W 04:33:41 26° SW 04:36:33 10° SSE visible
16 May -3.9 22:52:05 10° WSW 22:55:27 81° SSE 22:58:49 10° ENE visible
17 May -2.6 00:29:11 10° W 00:32:27 44° N 00:35:43 10° ENE visible
17 May -3.2 02:06:16 10° WNW 02:09:36 58° NNE 02:12:56 10° E visible
17 May -3.3 03:43:10 10° WNW 03:46:21 39° SW 03:49:32 10° SE visible
17 May -3.7 22:04:44 10° SW 22:08:02 56° SSE 22:11:21 10° ENE visible
17 May -2.8 23:41:38 10° W 23:44:55 49° N 23:48:13 10° ENE visible
18 May -2.8 01:18:48 10° WNW 01:22:05 49° N 01:22:56 38° NE visible
18 May -1.1 02:55:39 10° WNW 02:55:49 11° WNW 02:55:49 11° WNW visible
18 May -3.1 22:54:04 10° W 22:57:24 59° NNW 23:00:45 10° ENE visible
19 May -2.6 00:31:18 10° WNW 00:34:33 44° N 00:36:31 20° ENE visible
19 May -1.8 02:08:11 10° WNW 02:09:26 21° WNW 02:09:26 21° WNW visible
19 May -3.5 22:06:33 10° WSW 22:09:55 75° NNW 22:13:18 10° ENE visible
19 May -2.5 23:43:46 10° WNW 23:47:00 43° N 23:50:15 10° ENE visible
20 May -2.9 01:20:44 10° WNW 01:23:17 47° NW 01:23:17 47° NW visible
20 May -2.6 22:56:13 10° W 22:59:28 44° N 23:02:44 10° ENE visible
21 May -3.2 00:33:16 10° WNW 00:36:37 58° NNE 00:37:11 49° ENE visible
21 May -2.8 22:08:38 10° W 22:11:56 49° N 22:15:14 10° ENE visible
21 May -2.9 23:45:48 10° WNW 23:49:06 49° N 23:51:10 20° ENE visible
22 May -1.9 01:22:40 10° WNW 01:24:06 23° WNW 01:24:06 23° WNW visible
22 May -2.6 22:58:18 10° WNW 23:01:33 44° N 23:04:49 10° E visible
